Location: ????
(55.5675°N, 37.6272°E)
Time: 20:59:22
(UTC+00:00)

Cosmos 1805 - Pass Details

Date: 14 April 2026
Orbit: 415 x 416 km, 82.5° (Epoch: 11 May)

Event Time Altitude Azimuth Distance (km) Brightness Sun altitude
Rises 22:23:40 0° 353° (N) 2,379 7.7 -23.8°
Reaches altitude 10° 22:25:48 10° 2° (N) 1,509 6.6 -23.7°
Enters shadow 22:28:31 35° 55° (NE) 696 4.2 -23.6°
